Miscellaneous Local Product
Issued by NWS Hastings, NE

Home | Current Version | Previous Version | Text Only | Print | Product List | Glossary Off
Versions: 1 2 3 4 5 6 7 8 9 10 11 12 13 14 15 16 17 18 19 20 21 22 23 24 25 26 27 28 29 30 31 32 33 34 35 36 37 38 39 40 41 42 43 44 45 46 47 48 49 50

000
AXUS43 KGID 250402
MISGRI

GID CWA HOURLY WEATHER ROUNDUP
NATIONAL WEATHER SERVICE HASTINGS NE
1100 PM CDT SAT SEP 24 2016

NOTE: "FAIR" INDICATES FEW OR NO CLOUDS BELOW 12,000 FEET WITH NO
SIGNIFICANT WEATHER AND/OR OBSTRUCTIONS TO VISIBILITY.

...SOUTH CENTRAL NEBRASKA...

CITY           SKY/WX    TMP DP  RH WIND       PRES   REMARKS
GRAND ISLAND   PTCLDY    62  61  96 SW3       29.98R
HASTINGS       PTCLDY    63  61  93 CALM      30.00R
KEARNEY        CLEAR     63  46  55 W3        30.00R
ORD            PTCLDY    54  47  77 CALM      29.99R
YORK           CLOUDY    68  68 100 S5        29.98R
AURORA         MOCLDY    66  66 100 SW5       29.98R
LEXINGTON      CLEAR     53  46  78 NW3       30.03R
HOLDREGE       CLEAR     55  49  81 W5        30.02R
HEBRON         CLOUDY    70  68  94 CALM      29.98R

...NEBRASKA PANHANDLE...

CITY           SKY/WX    TMP DP  RH WIND       PRES   REMARKS
CHADRON        PTCLDY    53  41  63 W15       30.15R
ALLIANCE       PTCLDY    50  41  71 NW16      30.16R
SCOTTSBLUFF    CLEAR     48  41  76 NW7       30.21R
SIDNEY         PTCLDY    50  41  71 NW12      30.22R

...WESTERN AND NORTH CENTRAL NEBRASKA...

CITY           SKY/WX    TMP DP  RH WIND       PRES   REMARKS
VALENTINE      CLEAR     55  39  54 W22G30    30.03S
AINSWORTH      CLEAR     57  43  59 W15G22    30.05R
ONEILL         CLOUDY    61  43  52 W12       30.00R
BROKEN BOW     CLEAR     60  43  53 NW15G25   30.04R
IMPERIAL       CLOUDY    58  40  51 NW14      30.15R
NORTH PLATTE   CLEAR     58  44  60 NW12      30.10R
MCCOOK         CLEAR     56  43  61 NW9       30.05R HAZE

...EASTERN NEBRASKA...

CITY           SKY/WX    TMP DP  RH WIND       PRES   REMARKS
NORFOLK        CLOUDY    68  64  87 SW3       29.96R
SO SIOUX CITY  CLOUDY    72  71  97 SE12      29.93S
TEKAMAH        CLOUDY    70  68  93 SE7       29.96R
COLUMBUS       CLOUDY   N/A N/A N/A S5        29.96R
ALBION         MOCLDY    63  60  91 CALM      29.98R
OMAHA EPPLEY   CLOUDY    71  67  87 S8        29.98R
OFFUTT AFB     LGT RAIN  68  68 100 SE8       29.97R
MILLARD        LGT RAIN  71  68  92 CALM      29.96S
LINCOLN        CLOUDY    69  68  96 S7        29.97S
NEBRASKA CITY  TSTM      68  65  91 S12       29.99R
BEATRICE       CLOUDY    69  68  97 S12       29.98R
FALLS CITY     HVY RAIN  70  70 100 S12       29.98F FOG

...NORTHERN KANSAS...

CITY           SKY/WX    TMP DP  RH WIND       PRES   REMARKS
GOODLAND       CLOUDY    55  40  56 CALM      30.09R
HILL CITY      CLOUDY    55  52  89 CALM      30.02R
NORTON         CLEAR     55  39  54 W3        30.02R
PHILLIPSBURG   CLEAR     57  57 100 W5        30.00S
SMITH CENTER   CLEAR     63  63 100 CALM      29.99F
HAYS           CLOUDY    66  57  72 CALM      30.01R
CONCORDIA      CLOUDY    68  68 100 SE8       29.98R
SALINA         CLOUDY    70  68  93 CALM      29.99S
TOPEKA         RAIN      68  67  96 CALM      30.02F FOG



USA.gov is the U.S. government's official web portal to all federal, state and local government web resources and services.